{"data":{"norad_id":68056,"epoch":"2026-05-25T03:06:16.723008Z","epoch_age_seconds":53927,"freshness":"FRESH","line1":"1 68056U 26041S   26145.12936022  .00012862  00000+0  39114-3 0  9990","line2":"2 68056  53.1593  53.2497 0001161  84.3093 275.8042 15.34400284 13114","mean_motion":15.34400284,"eccentricity":0.0001161,"inclination_deg":53.1593,"raan_deg":53.2497,"arg_perigee_deg":84.3093,"mean_anomaly_deg":275.8042,"bstar":0.00039114,"rev_number":1311,"period_min":93.847740711185,"perigee_km":461.9081746455,"apogee_km":463.49661755327,"semimajor_km":6840.8393960994,"source":"CELESTRAK","updated_at":"2026-05-25T13:38:21.813915Z"}}